Location: Unspecified
(0.0000°N, 0.0000°E)
Time: 04:52:37
(UTC+00:00)

Transit 2A - Pass Details

Date: 04 June 2019
Orbit: 593 x 966 km, 66.7° (Epoch: 26 June)

Event Time Altitude Azimuth Distance (km) Brightness Sun altitude
Rises 03:32:38 0° 212° (SSW) 3,331 - -33.3°
Reaches altitude 10° 03:35:04 10° 218° (SW) 2,453 - -32.7°
Maximum altitude 03:40:31 46° 290° (WNW) 1,181 - -31.5°
Exits shadow 03:42:55 31° 341° (NNW) 1,540 7.5 -31.0°
Drops below altitude 10° 03:46:24 10° 2° (N) 2,640 9.1 -30.2°
Sets 03:49:07 0° 8° (N) 3,610 9.9 -29.6°
